*** The Vicarage Weather Feed ***

NOAA NWS Hourly Roundups by Site

Regional Weather Roundup for Omaha, NE

To Select Another Site Choose from List

Select Site:  

000
ASUS43 KOAX 141210
RWRNE

WEATHER ROUNDUP FOR NEBRASKA
NATIONAL WEATHER SERVICE OMAHA NE
700 AM CDT MON JUN 14 2021

NOTES: SATELLITE DATA IS BEING USED TO AUGMENT CLOUD COVER ABOVE
       12000 FEET.
       "FAIR" INDICATES FEW OR NO CLOUDS BELOW 12,000 FEET WITH NO
       SIGNIFICANT WEATHER AND/OR OBSTRUCTIONS TO VISIBILITY.


NEZ001>004-019>022-054>056-141300-
NEBRASKA PANHANDLE

CITY           SKY/WX    TMP DP  RH WIND       PRES   REMARKS
SCOTTSBLUFF    CLEAR     64  56  75 E7        30.15R
6HR MIN TEMP:  62; 6HR MAX TEMP:  73;

ALLIANCE       CLEAR     59  57  93 MISG      30.15R
6HR MIN TEMP:  58; 6HR MAX TEMP:  66; 6HR PCP:  0.01;

CHADRON        CLEAR     57  54  89 SW5       30.14R
6HR MIN TEMP:  56; 6HR MAX TEMP:  71;

GORDON         CLEAR     57  55  92 NE5       30.16R
KIMBALL        CLEAR     61  60  96 S8        30.21S
SIDNEY         CLEAR     64  58  80 S9        30.17S
6HR MIN TEMP:  64; 6HR MAX TEMP:  71;

$$

NEZ057>060-069>072-079>082-141300-
SOUTHWEST NEBRASKA

CITY           SKY/WX    TMP DP  RH WIND       PRES   REMARKS
NORTH PLATTE   CLEAR     65  60  84 NW5       30.11R
6HR MIN TEMP:  63; 6HR MAX TEMP:  78; 6HR PCP:  0.27;

IMPERIAL       CLEAR     69  57  65 MISG      30.13R
6HR MIN TEMP:  68; 6HR MAX TEMP:  74;

LEXINGTON      MOCLDY    68  59  73 W9        30.09R
MCCOOK         PTCLDY    70  57  63 SW9       30.09R
6HR MIN TEMP:  70; 6HR MAX TEMP:  76;

OGALLALA       CLEAR     69  61  74 CALM      30.15R
$$

NEZ005>010-023>029-035>040-094-141300-
NORTH CENTRAL NEBRASKA

CITY           SKY/WX    TMP DP  RH WIND       PRES   REMARKS
VALENTINE      PTCLDY    69  57  65 N6        30.11R
6HR MIN TEMP:  67; 6HR MAX TEMP:  84;

AINSWORTH      CLEAR     64  56  74 S6        30.10S
BROKEN BOW     MOCLDY    71  58  63 N8        30.12R
6HR MIN TEMP:  67; 6HR MAX TEMP:  79; 6HR PCP:  0.01;

O`NEILL        CLOUDY    71  58  61 SW10      30.03F
ORD            MOCLDY    68  58  70 CALM      30.09R
6HR MIN TEMP:  66; 6HR MAX TEMP:  74;

THEDFORD       CLEAR     59  58  96 CALM      30.14S
$$

NEZ041-046>049-061>064-073>077-083>087-141300-
SOUTH CENTRAL NEBRASKA

CITY           SKY/WX    TMP DP  RH WIND       PRES   REMARKS
GRAND ISLAND   MOCLDY    70  56  61 S7        30.06F
6HR MIN TEMP:  64; 6HR MAX TEMP:  72;

AURORA         MOCLDY    69  58  67 SE5       30.07F
HASTINGS       MOCLDY    70  58  65 SE6       30.04F
6HR MIN TEMP:  64; 6HR MAX TEMP:  73;

HEBRON         CLOUDY    64  57  79 CALM      30.10F
HOLDREGE       MOCLDY    71  59  65 S5        30.04F
KEARNEY        MOCLDY    78  55  44 SW5       30.03F
YORK           MOCLDY    66  59  77 CALM      30.08S
$$

NEZ011>018-030>034-042>045-141300-
NORTHEAST NEBRASKA

CITY           SKY/WX    TMP DP  RH WIND       PRES   REMARKS
NORFOLK        CLOUDY    66  57  72 NE3       30.08R
6HR MIN TEMP:  64; 6HR MAX TEMP:  74;

ALBION         MOCLDY    64  61  90 CALM      30.07F
BLAIR          PTSUNNY   69  57  65 N6        30.09R
COLUMBUS       MOCLDY    65  62  90 CALM      30.08F
FREMONT        PTSUNNY   69  59  71 CALM      30.08S
TEKAMAH        PTSUNNY   66  60  81 S3        30.07S
6HR MIN TEMP:  62; 6HR MAX TEMP:  67;

WAYNE          CLOUDY    64  57  78 N5        30.08S
$$

NEZ050>053-065>068-078-088>093-141300-
SOUTHEAST NEBRASKA

CITY           SKY/WX    TMP DP  RH WIND       PRES   REMARKS
LINCOLN        PTSUNNY   65  58  78 S3        30.09S
6HR MIN TEMP:  62; 6HR MAX TEMP:  71;

OMAHA EPPLEY   PTSUNNY   70  61  73 NW3       30.08R
6HR MIN TEMP:  67; 6HR MAX TEMP:  74;

BEATRICE       MOCLDY    64  60  85 CALM      30.11F
FALLS CITY     MOSUNNY   63  61  93 NW3       30.09R
6HR MIN TEMP:  60; 6HR MAX TEMP:  69;

NEBRASKA CITY  MOSUNNY   68  57  66 W8        30.10R
PLATTSMOUTH    MOSUNNY   68  58  70 W3        30.09S
$$

NEZ044-045-051>053-067-141300-
OMAHA AREA

CITY           SKY/WX    TMP DP  RH WIND       PRES   REMARKS
OMAHA EPPLEY   PTSUNNY   70  61  73 NW3       30.08R
6HR MIN TEMP:  67; 6HR MAX TEMP:  74;

BLAIR          PTSUNNY   69  57  65 N6        30.09R
FREMONT        PTSUNNY   69  59  71 CALM      30.08S
MILLARD        MOSUNNY   65  60  82 CALM      30.08S
OFFUTT AFB     MOSUNNY   67  58  74 CALM      30.08R
PLATTSMOUTH    MOSUNNY   68  58  70 W3        30.09S
WAHOO          PTSUNNY   66  60  79 CALM      30.09S
$$


 

View Past Reports for Omaha, NE.

Products Courtesy of NOAA-NWS
NWS Information Parsing Script by Ken True at Saratoga Weather - Script by SE Lincoln Weather.

This data is offered only as a general guide to local weather conditions. It should not be relied upon in lieu of officially disseminated weather information for determining possible risk to persons or property. This site, including all information contained therein, is made available as is without warranties of any kind, either express or implied. The Vicarage Weather Feed© includes links to other sites for user convenience only. The content of any linked third-party site is not controlled by The Vicarage Weather Feed©. Access to any third-party website through The Vicarage Weather Feed©, regardless of whether or not the third-party site is a linked site, is entirely at the users own risk. Externally sourced content or material is excluded from The Vicarage Weather Feed© copyright and is the copyright and property of the respective provider. Skywarn® and the Skywarn® logo are registered trademarks of the National Oceanic and Atmospheric Administration, used with permission.